www.pogodaiklimat.ru

Погода и климат >> Архив погоды >> Россия >> Ненецкий АО >> Амдерма


ПОГОДА в Амдерме

  • Прогноз погоды в Амдерме
  • Монитор погоды в Амдерме
  • Климат города

АРХИВ ПОГОДЫ в Амдерме

Время (UTC), дата Ветер
(напр.,м/с)
 
Видим.   Явления Облачность Т
(С)
Тd
(С)
f
(%)
Тe
(С)
Тes
(С)
Комфортность P
(гПа)
Po
(гПа)
Тmin
(С)
Tmax
(С)
R
(мм)
S
(см)
09 13.02 Ю 16-20
{20}
500 м слабый ливневой снег {метель} 9/6 300 м
[Cb cap Ac trans Ci fib]
-7.4 -8.3 93 -20 -20 990.5 984.0
12 13.02 Ю 10-13
{20}
4000 м слабый ливневой снег {метель} 9/8 600 м
[Cb cap Ac trans]
-7.6 -8.5 93 -18 -18 988.5 982.1
15 13.02 Ю 12-16
{17}
500 м ливневой снег {метель} 10/10 300 м
[Cb cap]
-7.3 -8.1 94 -18 -18 985.8 979.4 -4.7 1
18 13.02 Ю 17-20
{23}
200 м сильная метель {ливн. осадки} 10/10 600 м
[Sc]
-7.1 -7.9 94 -20 -20 983.1 976.7
21 13.02 Ю 15-18
{20}
500 м сильная метель 10/0
[As trans]
-7.4 -8.4 93 -19 -19 982.4 976.0
00 14.02 ЮЗ 12-15
{18}
4000 м метель 10/0
[As trans]
-7.4 -8.6 91 -18 -18 981.9 975.5
03 14.02 Ю 10-12
{15}
10 км позёмок {метель} 8/3 600 м
[Sc Ci fib]
-8.2 -9.4 91 -19 -19 982.4 976.0 -8.3 0.2 10
06 14.02 Ю 7
{14}
10 км слабый ливневой снег {метель} 9/8 600 м
[Cb cap Ac trans]
-7.9 -8.9 93 -17 -17 983.4 977.0 -8.9
09 14.02 Ю 7 10 км слабый ливневой снег {метель} 10/8 600 м
[Cb cap Ac und]
-7.7 -8.8 92 -17 -17 984.6 978.2
12 14.02 Ю 4 10 км слабый дождь со снегом {ливн. осадки} 9/9 300 м
[St]
-7.5 -8.7 91 -14 -14 985.5 979.1
15 14.02 З 2 10 км {снег} 10/10 300 м
[St]
-6.8 -7.3 96 -11 -11 986.5 980.1 -6.8 0.4
18 14.02 С 6-10
{11}
2000 м слабый ливневой снег 10/10 300 м
[Cb cap]
-5.2 -5.6 97 -13 -13 987.2 980.9
21 14.02 С 8-12
{13}
4000 м слабый ливневой снег {метель} [диам. гололёда 1 мм] 10/10 600 м
[Cb cap]
-6.1 -7.9 87 -15 -15 989.2 982.9
00 15.02 С 8-13
{13}
4000 м слабый ливневой снег {метель} 10/10 300 м
[Cb cap]
-6.9 -8.1 91 -16 -16 991.0 984.6
03 15.02 С 9-15
{15}
500 м ливневой снег {метель} 10/10 300 м
[Cb cap]
-7.6 -8.5 93 -18 -18 993.8 987.3 -7.6 2 10
06 15.02 С 11-14
{15}
2000 м слабый ливневой снег {метель} 10/10 300 м
[Cb cap]
-8.7 -9.9 91 -20 -20 997.7 991.1 -8.7
09 15.02 С 12-16
{17}
2000 м слабый ливневой снег {метель} 10/10 300 м
[Cb cap]
-9.1 -10.7 88 -20 -20 1001.5 994.9
12 15.02 С 9-16
{17}
1000 м ливневой снег {метель} 10/10 300 м
[Cb cap]
-10.0 -11.6 88 -20 -20 1005.5 998.9
15 15.02 С 9-14
{16}
2000 м ливневой снег {метель} 10/10 300 м
[Cb cap]
-11.0 -12.9 86 -21 -21 1008.9 1002.3 -7.5 0.5
18 15.02 С 8-13
{15}
4000 м слабый ливневой снег {метель} 10/10 300 м
[Cb cap]
-11.5 -14.8 76 -21 -21 1010.6 1004.0
21 15.02 С 6-10
{14}
10 км {ливн. осадки, метель} 9/9 600 м
[Sc]
-12.0 -14.9 79 -21 -21 1011.6 1004.9
00 16.02 С 3
{10}
10 км {ливн. осадки, метель} 10/0
[]
-13.6 -16.1 81 -20 -20 1012.0 1005.3
03 16.02 Ю 5 10 км 9/3 600 м
[Sc Ac As Ci sp]
-15.4 -18.4 78 -24 -24 1010.2 1003.5 -15.8 9
06 16.02 Ю 11-13
{14}
10 км позёмок {метель} 9/3 600 м
[Sc Ac As]
-15.9 -17.5 87 -29 -29 1006.4 999.6 -17.7
09 16.02 Ю 14-17
{18}
500 м слабый ливневой снег {метель} 10/8 600 м
[Cb cap Ac und]
-12.5 -13.6 91 -25 -25 1001.3 994.7
12 16.02 Ю 19-24
{24}
50 м сильная метель {ливн. осадки} ?/? -10.4 -11.5 92 -24 -24 993.8 987.3
15 16.02 ЮЗ 10-14
{25}
2000 м слабый ливневой снег {метель} 10/10 600 м
[Cb cap]
-8.2 -9.0 94 -19 -19 991.7 985.2 -8.2 3
18 16.02 З 7
{14}
10 км в посл. час ливневой снег {метель} 10/10 600 м
[Sc]
-7.1 -9.6 82 -16 -16 991.9 985.5
21 16.02 З 10-13
{13}
10 км {ливн. осадки, метель} 10/10 600 м
[Sc]
-7.4 -10.4 79 -18 -18 990.9 984.4
00 17.02 З 8-11
{14}
10 км 4/4 300 м
[Sc]
-9.4 -12.0 81 -19 -19 990.1 983.6
03 17.02 З 8-11
{12}
10 км 3/0
[Ac trans]
-10.2 -12.8 81 -20 -20 989.0 982.5 -10.4 10
06 17.02 З 9-12
{12}
10 км 3/0
[Ac trans]
-10.6 -13.8 77 -21 -21 987.3 980.8 -11.1
09 17.02 З 9-12
{13}
10 км 1/0
[Ac trans]
-10.3 -13.4 78 -21 -21 986.0 979.5
12 17.02 С 9-13
{13}
1000 м крупа {ливн. осадки, метель} 10/10 200 м
[Cb cap]
-9.3 -10.6 90 -19 -19 986.2 979.7
15 17.02 СЗ 7-11
{17}
4000 м слабый ливневой снег {метель} 10/10 600 м
[Cb cap]
-12.4 -14.4 85 -22 -22 988.5 982.0 -8.8 0.6
18 17.02 СЗ 8-13
{15}
4000 м слабый ливневой снег {метель} 10/10 600 м
[Cb cap]
-12.3 -14.0 87 -22 -22 990.1 983.6
21 17.02 СЗ 6-12
{13}
4000 м слабый ливневой снег {метель} 10/10 600 м
[Cb cap]
-11.5 -13.3 86 -20 -20 991.9 985.3
00 18.02 СЗ 7-12
{12}
4000 м слабый ливневой снег {метель} 10/10 600 м
[Cb cap]
-12.2 -14.7 82 -22 -22 993.2 986.6
03 18.02 СЗ 4
{11}
4000 м слабый ливневой снег {метель} 10/10 600 м
[Cb cap]
-11.7 -13.4 87 -19 -19 994.2 987.7 -12.5 0.7 9
06 18.02 С 3 4000 м слабый ливневой снег {метель} 10/5 600 м
[Cb cap Ac und]
-12.3 -13.9 88 -18 -18 995.6 989.0
09 18.02 СВ 3 10 км в посл. час ливневой снег 5/3 600 м
[Sc Ac trans Ci fib]
-16.2 -17.8 87 -23 -23 996.7 990.0
12 18.02 В 3 10 км {ливн. осадки} 9/3 600 м
[Sc Ac trans Ci fib]
-16.2 -17.9 87 -23 -23 997.0 990.3
15 18.02 В 4 10 км 9/9 600 м
[Sc]
-16.5 -18.1 87 -25 -25 997.0 990.3 -11.7 0.2
18 18.02 В 9-11
{12}
10 км позёмок {ливн. осадки, метель} 9/9 600 м
[Sc]
-16.6 -18.2 87 -29 -29 996.0 989.3
21 18.02 В 10-11
{12}
10 км позёмок {метель} 10/10 600 м
[Sc]
-18.0 -19.6 87 -31 -31 опасность
обморожения
995.4 988.7
00 19.02 В 11-14
{14}
4000 м метель 9/9 600 м
[Sc]
-18.6 -20.4 86 -32 -32 опасность
обморожения
995.0 988.2
03 19.02 СВ 10-12
{14}
4000 м метель 10/10 600 м
[Sc]
-19.1 -20.8 86 -32 -32 опасность
обморожения
994.8 988.0 -19.1 0.0 9
06 19.02 СВ 11-12
{14}
4000 м метель 9/8 600 м
[Sc Ci sp]
-19.5 -21.5 84 -33 -33 опасность
обморожения
994.5 987.7 -19.6
09 19.02 СВ 10-11
{13}
4000 м метель 9/0
[Cs]
-19.2 -21.0 86 -33 -33 опасность
обморожения
994.4 987.6
12 19.02 СВ 8-10
{12}
4000 м позёмок {метель} 9/0
[Ac trans Cs]
-19.1 -21.0 85 -31 -31 опасность
обморожения
994.5 987.8
15 19.02 СВ 8-11
{11}
4000 м позёмок {метель} 9/0
[Cs]
-19.5 -21.5 84 -32 -32 опасность
обморожения
994.5 987.7 -19.1
18 19.02 СВ 7-10
{12}
4000 м позёмок {метель} 3/0
[Ac trans]
-19.6 -21.6 84 -31 -31 опасность
обморожения
994.2 987.4
21 19.02 СВ 5
{11}
10 км позёмок {метель} ясно -20.1 -22.0 85 -30 -30 994.2 987.4
00 20.02 СВ 5 4000 м слабый ливневой снег {метель} 10/8 600 м
[Cb cap Ac und]
-19.5 -21.3 86 -29 -29 993.8 987.0
03 20.02 С 3 10 км слабый ливневой снег 8/6 600 м
[Cb cap Ac trans]
-19.2 -20.9 86 -27 -27 993.5 986.7 -20.2 0.2 9

 

Местоположение метеостанции Амдерма (Ненецкий АО, Россия): широта 69.77 долгота 61.68 высота над уровнем моря 48 м.

В архиве по умолчанию представлена погода в Амдерме за последнюю неделю. Архивные данные за месяц целиком и за предыдущие месяцы, начиная с января 2011 года, Вы можете получить, выбрав интересующий диапазон дат из раскрывающегося списка и нажав кнопку "Ввод!".

Внимание! Время в таблицах - всемирное. Для получения местного времени необходимо прибавить поправку, которая в Амдерме равна 3 ч.

Смотрите также архив погоды в соседних городах и на ближайших метеорологических станциях:

Погода на Мысе Белый Нос (Ненецкий АО, Россия) (60 км)
Погода в Имени Федорова (Ненецкий АО, Россия) (124 км)
Погода в Усть-Каре (Ненецкий АО, Россия) (139 км)
Погода в Варандее (Ненецкий АО, Россия) (179 км)
Погода в Inari Angeli (Финляндия) (186 км)
Погода в Марресаля (Ямало-Ненецкий АО, Россия) (197 км)
Погода в Воркуте (Коми, Россия) (271 км)
Погода на Мысе Константиновском (Ненецкий АО, Россия) (279 км)
Погода в Хорей-Вере (Ненецкий АО, Россия) (300 км)
Погода в Елецкой (Коми, Россия) (318 км)

Пояснения к столбцам:

Ветер - указаны скорость ветра в м/с - средняя за 10 мин, порывы в срок и между сроками (в фигурных скобках) и направление, откуда дует ветер: С - северный, СВ - северо-восточный, В - восточный, ЮВ - юго-восточный, Ю - южный, ЮЗ - юго-западный, З - западный, СЗ - северо-западный.
Видимость - горизонтальная дальность видимости в метрах или километрах. При видимости от 1 до 10 км при отсутствии осадков обычно наблюдается дымка, при ухудшении видимости до 1 км и менее - туман. В сухую погоду видимость может ухудшаться дымом, пылью или мглою.
Явления - указаны атмосферные явления, наблюдавшиеся в срок или в последний час перед сроком; фигурными скобками обозначены явления, наблюдавшиеся между сроками (за 1-3 часа до срока); квадратными скобками обозначены град или гололедные отложения с указанием их диаметра в мм.
Облачность - указаны через наклонную черту общая и нижняя облачность в баллах и высота нижней границы облаков в метрах; квадратными скобками обозначены формы облаков: Ci - перистые, Cs - перисто-слоистые, Cc - перисто-кучевые, Ac - высококучевые, As - высокослоистые, Sc - слоисто-кучевые, Ns - слоисто-дождевые, Cu - кучевые, Cb - кучево-дождевые. Подробнее классификацию облаков см. в Атласе облаков (PDF).
T - Температура воздуха - температура, измеренная на высоте 2 м над землей.
Td - Температура точки росы - температура, при понижении до которой содержащийся в воздухе водяной пар достигнет насыщения.
f - Относительная влажность воздуха - влажноcть воздуха, измеренная на высоте 2 м над землей.
Te - Эффективная температура - температура, которую ощущает одетый по сезону человек в тени. Характеристика душности погоды. При расчете учитывается влияние влажности воздуха и скорости ветра на теплоощущения человека.
Tes - Эффективная температура на солнце - температура, которую ощущает человек, с поправкой на солнечный нагрев. Характеристика знойности погоды. Зависит от высоты солнца над горизонтом, облачности и скорости ветра. Ночью, в пасмурную погоду, а также при ветре 12 м/с и более поправка равна нулю.
P - Атмосферное давление - приведенное к уровню моря атмосферное давление.
Po - Атмосферное давление - измеренное на уровне метеостанции атмосферное давление.
Tmin - Минимальная температура - минимум температуры воздуха на высоте 2 м над землей.
Tmax - Максимальная температура - максимум температуры воздуха на высоте 2 м над землей.
R - Количество осадков - Количество выпавших осадков, мм. При наведении курсора мыши на число - период времени, за который выпало указанное количество осадков.
S - Снежный покров - Высота снежного покрова, см. При наведении курсора мыши на число - состояние снежного покрова и степень покрытия местности в баллах.